Regional Weather Roundup
Issued by NWS

Home | Current Version | Previous Version | Graphics & Text | Print | Product List | Glossary On
Versions: 1 2 3 4 5 6 7 8 9 10 11 12 13 14 15 16 17 18 19 20 21 22 23 24 25 26 27 28 29 30 31 32 33 34 35 36 37 38 39 40 41 42 43 44 45 46 47 48 49 50
000
ASUS43 KLMK 031602
RWRKY
KENTUCKY REGIONAL WEATHER ROUNDUP
NATIONAL WEATHER SERVICE LOUISVILLE KY
1100 AM EST SAT DEC 03 2016

NOTE "FAIR" INDICATES FEW OR NO CLOUDS BELOW 12,000 FEET
WITH NO SIGNIFICANT WEATHER AND/OR OBSTRUCTIONS TO VISIBILITY.

KYZ001>023-026-027-061>063-070>075-031700-
WESTERN AND SOUTH CENTRAL KENTUCKY

CITY           SKY/WX    TMP DP  RH WIND       PRES   REMARKS
PADUCAH        PTSUNNY   43  31  62 E12       30.38R
HENDERSON      CLOUDY    43  30  61 E7        30.38S
OWENSBORO      PTSUNNY   43  31  62 NE8       30.39R
HOPKINSVILLE   NOT AVBL
BOWLING GREEN  CLOUDY    41  34  76 NE3       30.37R
GLASGOW        CLOUDY    39  33  77 CALM      30.36R
$$

KYZ024-025-028>034-038-045-046-053-031700-
NORTH CENTRAL KENTUCKY

CITY           SKY/WX    TMP DP  RH WIND       PRES   REMARKS
LOUISVILLE/SDF CLOUDY    43  26  51 N8        30.36F
LOUISVILLE/LOU CLOUDY    43  28  55 N5        30.37F
FORT KNOX      CLOUDY    42  28  57 NE5       30.34S
$$

KYZ035>037-039>044-047>052-055>060-089>105-031700-
NORTHEAST KENTUCKY

CITY           SKY/WX    TMP DP  RH WIND       PRES   REMARKS
LEXINGTON      CLOUDY    42  31  64 N7        30.35F
COVINGTON      CLOUDY    39  32  76 CALM      30.34F
FRANKFORT      CLOUDY    42  27  55 N5        30.35F
$$

KYZ054-064>069-076>088-106>120-031700-
SOUTHEAST KENTUCKY

CITY           SKY/WX    TMP DP  RH WIND       PRES   REMARKS
JACKSON        CLOUDY    39  29  67 CALM      30.34F
LONDON         CLOUDY    39  30  70 VRB3      30.33F
SOMERSET       CLOUDY    37  32  81 CALM      30.36F
MIDDLESBORO    CLOUDY    39  30  71 CALM      30.35F
MONTICELLO     CLOUDY    40  31  70 VRB5      30.36F
$$





USA.gov is the U.S. government's official web portal to all federal, state and local government web resources and services.